Weather History for Detroit Lakes, MN

Change the Weather History Date:

Sunday, June 16, 2013

  Actual Average Record
Temperature  
Mean Temperature 71 °F -  
Max Temperature 82 °F 73 °F 96 °F (1933)
Min Temperature 60 °F 49 °F 34 °F (1980)
Cooling Degree Days 6    
Growing Degree Days 21 (Base 50)    
Moisture  
Dew Point 47 °F    
Average Humidity 44    
Maximum Humidity 68    
Minimum Humidity 21    
Precipitation  
Precipitation 0.00 in - - ()
Sea Level Pressure  
Sea Level Pressure 29.88 in    
Wind  
Wind Speed 9 mph (West)    
Max Wind Speed 24 mph    
Max Gust Speed 32 mph    
Visibility 10 miles    
Events      
Averages and records for this station are not official NWS values.
T = Trace of Precipitation, MM = Missing Value Source: NWS Daily Summary

Daily Weather History Graph

Daily Weather History Graph

Search for Another Location

Airport:

Trip Planner

Search our weather history database for the weather conditions in past years. The results will help you decide how hot, cold, wet, or windy it might be!

Date:

Astronomy

Jun. 16, 2013 Rise Set
Actual Time 5:28 AM CDT 9:20 PM CDT
Civil Twilight 4:49 AM CDT 9:59 PM CDT
Nautical Twilight 3:55 AM CDT 10:53 PM CDT
Astronomical Twilight 2:35 AM CDT 12:13 AM CDT
Moon 1:33 PM CDT (6/16) 1:00 AM CDT (6/16)
Length of Visible Light 17h 10m
Length of Day
15h 51m
Waxing Crescent, 50% of the Moon is Illuminated
Jun 16
Waxing Crescent
Jun 16
First Quarter
Jun 23
Full
Jun 29
Last Quarter
Jul 8
New

Hourly Weather History & Observations

Time (CDT) Temp. Dew Point Humidity Pressure Visibility Wind Dir Wind Speed Gust Speed Precip Events Conditions
12:16 AM 68.0 °F 44.6 °F 43% 29.89 in 10.0 mi West 6.9 mph - N/A   Clear
12:35 AM 68.0 °F 44.6 °F 43% 29.89 in 10.0 mi West 6.9 mph - N/A   Clear
12:55 AM 66.2 °F 44.6 °F 46% 29.89 in 10.0 mi West 5.8 mph - N/A   Clear
1:15 AM 64.4 °F 46.4 °F 52% 29.89 in 10.0 mi West 5.8 mph - N/A   Clear
1:36 AM 64.4 °F 46.4 °F 52% 29.89 in 10.0 mi West 6.9 mph - N/A   Clear
1:55 AM 62.6 °F 46.4 °F 55% 29.89 in 10.0 mi West 5.8 mph - N/A   Clear
2:15 AM 62.6 °F 46.4 °F 55% 29.89 in 10.0 mi West 5.8 mph - N/A   Clear
2:36 AM 62.6 °F 46.4 °F 55% 29.89 in 10.0 mi West 5.8 mph - N/A   Clear
2:55 AM 62.6 °F 46.4 °F 55% 29.89 in 10.0 mi West 6.9 mph - N/A   Clear
3:15 AM 62.6 °F 48.2 °F 59% 29.89 in 10.0 mi WSW 5.8 mph - N/A   Clear
3:36 AM 60.8 °F 46.4 °F 59% 29.89 in 10.0 mi WSW 6.9 mph - N/A   Clear
3:55 AM 62.6 °F 46.4 °F 55% 29.89 in 10.0 mi WSW 6.9 mph - N/A   Clear
4:15 AM 60.8 °F 48.2 °F 63% 29.89 in 10.0 mi West 6.9 mph - N/A   Clear
4:35 AM 60.8 °F 48.2 °F 63% 29.89 in 10.0 mi WSW 6.9 mph - N/A   Clear
4:55 AM 62.6 °F 48.2 °F 59% 29.89 in 10.0 mi WSW 6.9 mph - N/A   Clear
5:16 AM 60.8 °F 48.2 °F 63% 29.89 in 10.0 mi WSW 6.9 mph - N/A   Clear
5:35 AM 60.8 °F 48.2 °F 63% 29.89 in 10.0 mi WSW 4.6 mph - N/A   Clear
5:55 AM 60.8 °F 48.2 °F 63% 29.90 in 10.0 mi WSW 3.5 mph - N/A   Clear
6:16 AM 60.8 °F 48.2 °F 63% 29.90 in 10.0 mi WSW 5.8 mph - N/A   Clear
6:35 AM 60.8 °F 50.0 °F 68% 29.90 in 10.0 mi West 5.8 mph - N/A   Clear
6:55 AM 62.6 °F 50.0 °F 63% 29.91 in 10.0 mi WSW 5.8 mph - N/A   Clear
7:16 AM 62.6 °F 50.0 °F 63% 29.91 in 10.0 mi WSW 6.9 mph - N/A   Clear
7:35 AM 64.4 °F 50.0 °F 59% 29.91 in 10.0 mi WSW 6.9 mph - N/A   Clear
7:55 AM 64.4 °F 50.0 °F 59% 29.91 in 10.0 mi WSW 8.1 mph - N/A   Clear
8:16 AM 66.2 °F 50.0 °F 56% 29.91 in 10.0 mi West 6.9 mph - N/A   Clear
8:35 AM 68.0 °F 50.0 °F 52% 29.91 in 10.0 mi West 9.2 mph - N/A   Clear
8:55 AM 69.8 °F 50.0 °F 49% 29.90 in 10.0 mi West 5.8 mph - N/A   Clear
9:16 AM 71.6 °F 50.0 °F 46% 29.90 in 10.0 mi West 8.1 mph - N/A   Clear
9:35 AM 71.6 °F 50.0 °F 46% 29.90 in 10.0 mi West 11.5 mph - N/A   Clear
9:55 AM 73.4 °F 50.0 °F 44% 29.90 in 10.0 mi West 8.1 mph 16.1 mph N/A   Clear
10:16 AM 73.4 °F 51.8 °F 47% 29.90 in 10.0 mi West 10.4 mph 17.3 mph N/A   Clear
10:35 AM 73.4 °F 51.8 °F 47% 29.90 in 10.0 mi WSW 10.4 mph - N/A   Clear
10:55 AM 73.4 °F 50.0 °F 44% 29.90 in 10.0 mi West 10.4 mph - N/A   Clear
11:15 AM 77.0 °F 50.0 °F 39% 29.89 in 10.0 mi West 9.2 mph - N/A   Clear
11:35 AM 77.0 °F 46.4 °F 34% 29.88 in 10.0 mi WSW 15.0 mph 20.7 mph N/A   Clear
11:56 AM 77.0 °F 46.4 °F 34% 29.88 in 10.0 mi West 12.7 mph 25.3 mph N/A   Clear
12:15 PM 78.8 °F 44.6 °F 30% 29.89 in 10.0 mi West 17.3 mph 26.5 mph N/A   Clear
12:35 PM 78.8 °F 42.8 °F 28% 29.88 in 10.0 mi West 17.3 mph 26.5 mph N/A   Clear
12:56 PM 78.8 °F 42.8 °F 28% 29.87 in 10.0 mi WNW 15.0 mph 20.7 mph N/A   Clear
1:15 PM 78.8 °F 41.0 °F 26% 29.87 in 10.0 mi West 13.8 mph 23.0 mph N/A   Clear
1:35 PM 80.6 °F 41.0 °F 24% 29.87 in 10.0 mi WNW 18.4 mph 25.3 mph N/A   Clear
1:56 PM 80.6 °F 41.0 °F 24% 29.87 in 10.0 mi West 17.3 mph 26.5 mph N/A   Clear
2:15 PM 80.6 °F 41.0 °F 24% 29.87 in 10.0 mi WNW 17.3 mph 26.5 mph N/A   Clear
2:35 PM 80.6 °F 42.8 °F 26% 29.87 in 10.0 mi West 15.0 mph 21.9 mph N/A   Clear
2:56 PM 82.4 °F 42.8 °F 25% 29.87 in 10.0 mi West 15.0 mph 21.9 mph N/A   Clear
3:15 PM 80.6 °F 41.0 °F 24% 29.86 in 10.0 mi WNW 16.1 mph 25.3 mph N/A   Clear
3:35 PM 80.6 °F 41.0 °F 24% 29.86 in 10.0 mi WNW 11.5 mph - N/A   Clear
3:55 PM 78.8 °F 41.0 °F 26% 29.86 in 10.0 mi WNW 16.1 mph 19.6 mph N/A   Clear
4:15 PM 82.4 °F 42.8 °F 25% 29.85 in 10.0 mi West 17.3 mph 25.3 mph N/A   Clear
4:35 PM 80.6 °F 41.0 °F 24% 29.84 in 10.0 mi WNW 13.8 mph 21.9 mph N/A   Clear
4:56 PM 82.4 °F 41.0 °F 23% 29.84 in 10.0 mi WNW 18.4 mph 26.5 mph N/A   Clear
5:15 PM 82.4 °F 41.0 °F 23% 29.83 in 10.0 mi WNW 19.6 mph 26.5 mph N/A   Clear
5:35 PM 82.4 °F 41.0 °F 23% 29.83 in 10.0 mi West 17.3 mph 25.3 mph N/A   Clear
5:56 PM 82.4 °F 39.2 °F 21% 29.83 in 10.0 mi WNW 20.7 mph 32.2 mph N/A   Clear
6:15 PM 80.6 °F 41.0 °F 24% 29.83 in 10.0 mi WNW 24.2 mph 31.1 mph N/A   Clear
6:35 PM 80.6 °F 42.8 °F 26% 29.83 in 10.0 mi WNW 20.7 mph 29.9 mph N/A   Clear
6:56 PM 80.6 °F 42.8 °F 26% 29.83 in 10.0 mi NW 20.7 mph 28.8 mph N/A   Clear
7:15 PM 78.8 °F 42.8 °F 28% 29.84 in 10.0 mi WNW 19.6 mph 29.9 mph N/A   Clear
7:35 PM 78.8 °F 42.8 °F 28% 29.84 in 10.0 mi WNW 18.4 mph 26.5 mph N/A   Clear
7:56 PM 77.0 °F 46.4 °F 34% 29.85 in 10.0 mi NNW 24.2 mph 29.9 mph N/A   Clear
8:15 PM 73.4 °F 50.0 °F 44% 29.86 in 10.0 mi NNW 17.3 mph 25.3 mph N/A   Clear
8:35 PM 73.4 °F 51.8 °F 47% 29.87 in 10.0 mi NNW 12.7 mph 23.0 mph N/A   Clear
8:56 PM 71.6 °F 50.0 °F 46% 29.88 in 10.0 mi NNW 12.7 mph 17.3 mph N/A   Clear
9:15 PM 69.8 °F 50.0 °F 49% 29.88 in 10.0 mi NNW 9.2 mph - N/A   Clear
9:35 PM 68.0 °F 50.0 °F 52% 29.88 in 10.0 mi NNW 8.1 mph - N/A   Clear
9:56 PM 68.0 °F 50.0 °F 52% 29.89 in 10.0 mi NNW 6.9 mph - N/A   Clear
10:15 PM 68.0 °F 50.0 °F 52% 29.89 in 10.0 mi NW 8.1 mph - N/A   Clear
10:35 PM 66.2 °F 50.0 °F 56% 29.90 in 10.0 mi NW 6.9 mph - N/A   Clear
10:56 PM 64.4 °F 50.0 °F 59% 29.90 in 10.0 mi NNW 4.6 mph - N/A   Clear
11:15 PM 62.6 °F 50.0 °F 63% 29.90 in 10.0 mi West 3.5 mph - N/A   Clear
11:35 PM 62.6 °F 50.0 °F 63% 29.91 in 10.0 mi WNW 4.6 mph - N/A   Clear
11:55 PM 62.6 °F 51.8 °F 68% 29.91 in 10.0 mi Calm Calm - N/A   Clear